| time (UTC) | temp F | wind direction | speed MPH | gust MPH | rain 1hr in | rain 24hr in | rain mn in | humidity % | barometer mb |
| 20260831183038 | 91 | 5 | 2.0 | 5.0 | 0.00 | 0.81 | 0.00 | 65 | 1015.8 |
| 20260831181514 | 89 | 178 | 0.0 | 3.0 | 0.00 | 0.81 | 0.00 | 70 | 1015.8 |
| 20260831180026 | 86 | 175 | 0.0 | 2.0 | 0.00 | 0.81 | 0.00 | 73 | 1016.1 |
| 20260831174528 | 84 | 136 | 0.0 | 2.0 | 0.00 | 0.81 | 0.00 | 76 | 1016.4 |
| 20260831173030 | 84 | 190 | 0.0 | 2.0 | 0.00 | 0.81 | 0.00 | 76 | 1016.6 |
| 20260831171510 | 84 | 219 | 1.0 | 3.0 | 0.00 | 0.81 | 0.00 | 77 | 1016.6 |
| 20260831170027 | 85 | 168 | 1.0 | 4.0 | 0.00 | 0.81 | 0.00 | 78 | 1016.7 |
| 20260831164524 | 86 | 169 | 0.0 | 3.0 | 0.00 | 0.81 | 0.00 | 72 | 1016.8 |
| 20260831163004 | 89 | 171 | 0.0 | 2.0 | 0.00 | 0.82 | 0.00 | 72 | 1016.8 |
| 20260831161511 | 90 | 98 | 1.0 | 4.0 | 0.00 | 0.82 | 0.00 | 68 | 1016.9 |
| 20260831160009 | 91 | 352 | 2.0 | 5.0 | 0.00 | 0.82 | 0.00 | 68 | 1016.9 |
| 20260831154517 | 90 | 65 | 1.0 | 6.0 | 0.00 | 0.82 | 0.00 | 69 | 1017.0 |
| 20260831153014 | 90 | 5 | 2.0 | 6.0 | 0.00 | 0.82 | 0.00 | 69 | 1017.2 |
| 20260831151506 | 90 | 49 | 0.0 | 2.0 | 0.00 | 0.82 | 0.00 | 70 | 1017.4 |
| 20260831150008 | 89 | 74 | 0.0 | 3.0 | 0.00 | 0.82 | 0.00 | 71 | 1017.3 |
| 20260831144505 | 88 | 62 | 1.0 | 3.0 | 0.00 | 0.82 | 0.00 | 75 | 1017.0 |
| 20260831143006 | 87 | 91 | 1.0 | 2.0 | 0.00 | 0.82 | 0.00 | 76 | 1016.9 |
| 20260831141516 | 86 | 152 | 0.0 | 3.0 | 0.00 | 0.82 | 0.00 | 80 | 1016.9 |
| 20260831140010 | 84 | 110 | 1.0 | 3.0 | 0.00 | 0.82 | 0.00 | 82 | 1017.0 |
| 20260831134511 | 83 | 42 | 0.0 | 3.0 | 0.00 | 0.82 | 0.00 | 85 | 1016.8 |
| 20260831133009 | 81 | 59 | 0.0 | 0.0 | 0.00 | 0.82 | 0.00 | 88 | 1016.8 |
| 20260831131512 | 80 | 60 | 0.0 | 0.0 | 0.00 | 0.82 | 0.00 | 89 | 1016.6 |
| 20260831130008 | 80 | 30 | 0.0 | 0.0 | 0.00 | 0.82 | 0.00 | 90 | 1016.3 |
| 20260831124510 | 79 | 53 | 0.0 | 0.0 | 0.00 | 0.82 | 0.00 | 90 | 1016.3 |
| 20260831123015 | 79 | 56 | 0.0 | 0.0 | 0.00 | 0.82 | 0.00 | 90 | 1016.0 |
| 20260831121522 | 79 | 58 | 0.0 | 0.0 | 0.00 | 0.82 | 0.00 | 91 | 1016.0 |
| 20260831120028 | 79 | 58 | 0.0 | 2.0 | 0.00 | 0.82 | 0.00 | 91 | 1016.0 |
| 20260831114518 | 78 | 69 | 0.0 | 2.0 | 0.00 | 0.82 | 0.00 | 92 | 1016.0 |
| 20260831113019 | 78 | 74 | 0.0 | 0.0 | 0.00 | 0.82 | 0.00 | 92 | 1015.8 |
| 20260831111517 | 78 | 74 | 0.0 | 0.0 | 0.00 | 0.82 | 0.00 | 92 | 1015.5 |
| 20260831110014 | 78 | 74 | 0.0 | 0.0 | 0.00 | 0.82 | 0.00 | 92 | 1015.3 |
| 20260831104527 | 78 | 74 | 0.0 | 0.0 | 0.00 | 0.82 | 0.00 | 91 | 1015.2 |
| 20260831103016 | 78 | 74 | 0.0 | 0.0 | 0.00 | 0.82 | 0.00 | 91 | 1015.3 |
| 20260831101522 | 78 | 88 | 0.0 | 0.0 | 0.00 | 0.82 | 0.00 | 91 | 1015.3 |
| 20260831100025 | 78 | 88 | 0.0 | 0.0 | 0.00 | 0.82 | 0.00 | 91 | 1015.3 |
| 20260831094516 | 78 | 87 | 0.0 | 3.0 | 0.00 | 0.82 | 0.00 | 92 | 1015.2 |
| 20260831093019 | 77 | 98 | 1.0 | 2.0 | 0.00 | 0.82 | 0.00 | 92 | 1015.0 |
| 20260831091522 | 77 | 40 | 0.0 | 1.0 | 0.00 | 0.82 | 0.00 | 92 | 1014.9 |
| 20260831090019 | 77 | 46 | 0.0 | 2.0 | 0.00 | 0.82 | 0.00 | 92 | 1014.9 |
| 20260831084518 | 77 | 34 | 0.0 | 2.0 | 0.00 | 0.82 | 0.00 | 92 | 1014.9 |
| 20260831083017 | 77 | 29 | 0.0 | 2.0 | 0.00 | 0.82 | 0.00 | 92 | 1015.1 |
| 20260831081533 | 77 | 13 | 0.0 | 0.0 | 0.00 | 0.82 | 0.00 | 92 | 1015.0 |
| 20260831080024 | 77 | 13 | 0.0 | 0.0 | 0.00 | 0.82 | 0.00 | 92 | 1015.1 |
| 20260831074524 | 77 | 13 | 0.0 | 2.0 | 0.00 | 0.82 | 0.00 | 92 | 1015.0 |
| 20260831073022 | 77 | 13 | 0.0 | 2.0 | 0.00 | 0.82 | 0.00 | 92 | 1015.3 |
| 20260831071526 | 77 | 30 | 0.0 | 2.0 | 0.00 | 0.82 | 0.00 | 92 | 1015.3 |
| 20260831070027 | 77 | 49 | 0.0 | 2.0 | 0.00 | 0.82 | 0.00 | 92 | 1015.3 |
| 20260831064527 | 77 | 63 | 0.0 | 0.0 | 0.00 | 0.82 | 0.00 | 92 | 1015.2 |
| 20260831063025 | 77 | 63 | 0.0 | 0.0 | 0.00 | 0.82 | 0.00 | 92 | 1015.4 |
| 20260831061523 | 77 | 63 | 0.0 | 0.0 | 0.00 | 0.82 | 0.00 | 91 | 1015.7 |
| 20260831060027 | 77 | 63 | 0.0 | 0.0 | 0.00 | 0.82 | 0.00 | 91 | 1015.7 |
| 20260831054524 | 77 | 57 | 0.0 | 2.0 | 0.00 | 0.82 | 0.00 | 91 | 1016.2 |
| 20260831053025 | 77 | 57 | 0.0 | 2.0 | 0.00 | 0.82 | 0.00 | 91 | 1016.3 |
| 20260831051529 | 77 | 57 | 1.0 | 2.0 | 0.00 | 0.82 | 0.00 | 91 | 1016.5 |
| 20260831050021 | 77 | 55 | 0.0 | 2.0 | 0.00 | 0.82 | 0.00 | 91 | 1016.5 |
| 20260831044526 | 77 | 48 | 0.0 | 2.0 | 0.00 | 0.82 | 0.00 | 91 | 1016.6 |
| 20260831043005 | 77 | 46 | 0.0 | 2.0 | 0.00 | 0.82 | 0.00 | 91 | 1016.7 |
| 20260831041519 | 77 | 47 | 0.0 | 2.0 | 0.00 | 0.82 | 0.00 | 91 | 1016.8 |
| 20260831040037 | 77 | 47 | 0.0 | 2.0 | 0.00 | 0.82 | 0.00 | 91 | 1016.8 |
| 20260831034526 | 77 | 46 | 0.0 | 2.0 | 0.00 | 0.82 | 0.82 | 91 | 1016.8 |
| 20260831033032 | 77 | 35 | 0.0 | 2.0 | 0.00 | 0.82 | 0.82 | 90 | 1016.7 |
| 20260831031509 | 77 | 49 | 0.0 | 2.0 | 0.00 | 0.82 | 0.82 | 90 | 1016.8 |
| 20260831030014 | 77 | 51 | 0.0 | 2.0 | 0.00 | 0.82 | 0.82 | 90 | 1016.7 |
| 20260831024522 | 77 | 53 | 0.0 | 2.0 | 0.00 | 0.82 | 0.82 | 90 | 1016.7 |
| 20260831023037 | 77 | 99 | 1.0 | 2.0 | 0.00 | 0.82 | 0.82 | 90 | 1016.9 |
| 20260831021527 | 77 | 97 | 0.0 | 2.0 | 0.00 | 0.82 | 0.82 | 89 | 1016.7 |
| 20260831020014 | 77 | 84 | 0.0 | 2.0 | 0.00 | 0.82 | 0.82 | 89 | 1016.6 |
| 20260831014521 | 77 | 10 | 1.0 | 3.0 | 0.00 | 0.82 | 0.82 | 89 | 1016.5 |
| 20260831013028 | 77 | 52 | 1.0 | 3.0 | 0.00 | 0.82 | 0.82 | 88 | 1016.5 |
| 20260831011531 | 77 | 96 | 1.0 | 3.0 | 0.00 | 0.82 | 0.82 | 88 | 1016.9 |
| 20260831010028 | 77 | 87 | 1.0 | 3.0 | 0.00 | 0.82 | 0.82 | 88 | 1016.7 |
| 20260831004514 | 77 | 54 | 1.0 | 3.0 | 0.00 | 0.82 | 0.82 | 88 | 1016.7 |
| 20260831003021 | 78 | 65 | 1.0 | 4.0 | 0.00 | 0.82 | 0.82 | 88 | 1016.6 |
| 20260831001536 | 77 | 96 | 1.0 | 4.0 | 0.00 | 0.82 | 0.82 | 88 | 1016.5 |
| 20260831000030 | 77 | 54 | 1.0 | 4.0 | 0.00 | 0.82 | 0.82 | 89 | 1016.5 |
| 20260830234512 | 77 | 52 | 1.0 | 4.0 | 0.00 | 0.82 | 0.82 | 88 | 1016.4 |
| 20260830233020 | 77 | 112 | 1.0 | 3.0 | 0.00 | 0.82 | 0.82 | 88 | 1016.2 |
| 20260830231529 | 78 | 78 | 2.0 | 4.0 | 0.00 | 0.82 | 0.82 | 87 | 1015.9 |
| 20260830230036 | 78 | 70 | 1.0 | 5.0 | 0.00 | 0.82 | 0.82 | 86 | 1015.5 |
| 20260830224509 | 78 | 54 | 2.0 | 5.0 | 0.00 | 0.82 | 0.82 | 84 | 1015.8 |
| 20260830223023 | 79 | 49 | 1.0 | 5.0 | 0.00 | 0.82 | 0.82 | 85 | 1015.9 |
| 20260830221526 | 79 | 59 | 2.0 | 5.0 | 0.00 | 0.82 | 0.82 | 85 | 1016.3 |
| 20260830220033 | 80 | 57 | 1.0 | 5.0 | 0.00 | 0.82 | 0.82 | 85 | 1016.6 |
| 20260830214531 | 80 | 352 | 2.0 | 4.0 | 0.00 | 0.82 | 0.82 | 86 | 1016.4 |
| 20260830213013 | 80 | 14 | 2.0 | 4.0 | 0.05 | 0.82 | 0.82 | 86 | 1016.6 |
| 20260830211526 | 79 | 259 | 0.0 | 2.0 | 0.41 | 0.82 | 0.82 | 90 | 1016.5 |
| 20260830210026 | 78 | 249 | 0.0 | 2.0 | 0.74 | 0.82 | 0.82 | 88 | 1016.2 |
| 20260830204533 | 77 | 281 | 0.0 | 2.0 | 0.81 | 0.82 | 0.82 | 87 | 1015.6 |
| 20260830203034 | 77 | 326 | 0.0 | 3.0 | 0.76 | 0.77 | 0.77 | 86 | 1016.0 |
| 20260830201520 | 79 | 279 | 1.0 | 4.0 | 0.40 | 0.41 | 0.41 | 80 | 1016.3 |
| 20260830200024 | 84 | 36 | 0.0 | 2.0 | 0.07 | 0.08 | 0.08 | 81 | 1016.4 |
| 20260830194507 | 85 | 333 | 0.0 | 4.0 | 0.00 | 0.01 | 0.01 | 76 | 1016.0 |
| 20260830193013 | 86 | 19 | 3.0 | 5.0 | 0.00 | 0.01 | 0.01 | 74 | 1016.1 |
| 20260830191518 | 87 | 56 | 2.0 | 6.0 | 0.00 | 0.01 | 0.01 | 71 | 1016.0 |
| 20260830190027 | 91 | 14 | 2.0 | 6.0 | 0.00 | 0.01 | 0.01 | 65 | 1015.7 |
| 20260830184530 | 92 | 71 | 0.0 | 4.0 | 0.00 | 0.01 | 0.01 | 63 | 1015.6 |